This demonstration page uses our WeatherBlox Daily Observations layout. Learn more.

Left ArrowRight Arrow

34.74481, -87.66753

Hourly Observations for March 19, 2021

Temp ( °F °C ) Dew Point ( °F °C ) Humidity (%) Winds ( mph kmh ) Pressure ( in mb ) Visibility ( mi km ) Precip ( " mm )
12:53 am 00:53 Cloudy with Haze 46 7.8 40 4.4 79 79 W 10 17 29.99 1016 4 6 0.00 0.00
1:17 am 01:17 Cloudy with Light Rain 46 7.8 41 5 83 83 W 10 17 30.01 1016 4 6 0.00 0.00
1:53 am 01:53 Cloudy with Haze 46 7.8 41 5 83 83 WNW 9 15 30.00 1016 6 10 0.01 0.25
2:53 am 02:53 Cloudy 46 7.8 41 5 83 83 W 10 17 29.99 1016 10 16 0.00 0.00
3:04 am 03:04 Cloudy 46 7.8 41 5 83 83 WNW 8 13 30.01 1016 10 16 0.00 0.00
3:17 am 03:17 Cloudy 47 8.3 41 5 80 80 WNW 7 11 30.01 1016 10 16 0.00 0.00
3:30 am 03:30 Cloudy 47 8.3 41 5 80 80 WNW 9 15 30.01 1016 10 16 0.00 0.00
3:53 am 03:53 Cloudy 47 8.3 41 5 80 80 NW 7 11 30.00 1016 10 16 0.00 0.00
4:53 am 04:53 Cloudy 47 8.3 42 5.6 83 83 WNW 7 11 30.02 1017 10 16 0.00 0.00
5:53 am 05:53 Cloudy 48 8.9 42 5.6 80 80 NW 6 9 30.04 1017 10 16 0.00 0.00
6:35 am 06:35 Cloudy 48 8.9 42 5.6 80 80 VRB 6 9 30.07 1018 10 16 0.00 0.00
6:53 am 06:53 Cloudy 48 8.9 42 5.6 80 80 NNW 9 15 30.07 1018 10 16 0.00 0.00
7:50 am 07:50 Cloudy 48 9 39 4 71 71 NNE 9 15 30.11 1020 10 16 0.00 0.00
7:53 am 07:53 Cloudy 48 8.9 40 4.4 74 74 N 8 13 30.10 1019 10 16 0.00 0.00
8:11 am 08:11 Cloudy 48 8.9 40 4.4 74 74 N 9 15 30.12 1020 10 16 0.00 0.00
8:53 am 08:53 Cloudy 48 8.9 39 3.9 71 71 N 13 20 30.14 1021 10 16 0.00 0.00
9:53 am 09:53 Cloudy 48 8.9 38 3.3 68 68 N 9 15 30.16 1022 10 16 0.00 0.00
10:53 am 10:53 Cloudy 48 8.9 38 3.3 68 68 NNE 8 13 30.18 1022 10 16 0.00 0.00
11:53 am 11:53 Cloudy 49 9.4 39 3.9 69 69 N 8 13 30.19 1022 10 16 0.00 0.00
12:53 pm 12:53 Cloudy 48 8.9 38 3.3 68 68 N 10 17 30.20 1023 10 16 0.00 0.00
1:53 pm 13:53 Cloudy 48 8.9 37 2.8 66 66 NNE 13 20 30.19 1022 10 16 0.00 0.00
2:53 pm 14:53 Cloudy 48 8.9 37 2.8 66 66 NNE 12 19 30.19 1022 10 16 0.00 0.00
3:53 pm 15:53 Cloudy 48 8.9 36 2.2 63 63 NNE 13 20 30.21 1023 10 16 0.00 0.00
4:53 pm 16:53 Cloudy 48 8.9 36 2.2 63 63 NNE 13 20 30.22 1023 10 16 0.00 0.00
5:38 pm 17:38 Cloudy 49 9.4 35 1.7 59 59 NNE 8 13 30.24 1024 10 16 0.00 0.00
5:53 pm 17:53 Cloudy 49 9.4 35 1.7 59 59 NNE 9 15 30.23 1024 10 16 0.00 0.00
6:21 pm 18:21 Cloudy 49 9.4 35 1.7 59 59 N 12 19 30.25 1024 10 16 0.00 0.00
6:53 pm 18:53 Cloudy 49 9.4 35 1.7 59 59 NNE 8 13 30.25 1024 10 16 0.00 0.00
7:53 pm 19:53 Cloudy 49 9.4 35 1.7 59 59 NE 7 11 30.26 1025 10 16 0.00 0.00
8:53 pm 20:53 Cloudy 49 9.4 36 2.2 61 61 NE 3 6 30.27 1025 10 16 0.00 0.00
9:53 pm 21:53 Cloudy 50 10 37 2.8 61 61 N 3 6 30.28 1025 10 16 0.00 0.00
10:53 pm 22:53 Cloudy 50 10 37 2.8 61 61 Calm 30.29 1026 10 16 0.00 0.00
11:53 pm 23:53 Cloudy 50 10 37 2.8 61 61 N 3 6 30.28 1026 10 16 0.00 0.00

Powered by AerisWeather